sat.trackr.live / text

‹ back to catalog

STARLINK-4701

NORAD 53727 · 2022-107AD

PAYLOAD ACTIVE UNKNOWN

§ Identity

Operator
Country
US
Launch date
2022-09-05
Launch site
AFETR
Launch vehicle
Mass (kg)
RCS (m²)

Purposes: comms

External: N2YO · Heavens-Above · Gunter

§ Orbital elements

Epoch: 2026-05-25T01:32:26.032416Z

Period
95.44 min
Inclination
53.2145°
Eccentricity
0.0001237
Mean motion
15.08833538 rev/d
Perigee alt
538.9 km
Apogee alt
540.6 km
Semi-major
6,917.9 km
B*
3.8550e-5
RAAN
271.2538°
Arg perigee
92.9582°
Mean anomaly
267.1551°
Rev number
20,608

§ Raw data

STARLINK-47011 53727U 22107AD  26145.06419019  .00000326  00000+0  38550-4 0  99992 53727  53.2145 271.2538 0001237  92.9582 267.1551 15.08833538206089

JSON: /api/v1/satellites/53727 · /tle

For live sub-satellite position, see the globe view (requires WebGL).

§ Visibility from observer

Set your observer location to see the next 7 days of passes ≥ 10°. The values pass through the URL so the page stays shareable.

No JS? Fill the form by hand. The geolocation button needs JavaScript.